User: anonymous   Login
Location: �chenoz-la-M�line
(47.6009°N, 6.1354°E)
Time: 10:05:33
(UTC+00:00)
Language:

BREEZE-M DEB (TANK) - Orbit

View from above orbital plane
View from above orbital plane
View from above satellite
View from above satellite

Ground track
Ground track

The orbit data is extracted from the following two-line orbital elements,

1 33374U 08044B   21100.36315271  .00000188  00000-0  14791-3 0  9990
2 33374  49.5138  23.9849 5430793 202.4447 120.0334  4.88259313221956
Epoch (UTC): 10 April 2021 08:42:56
Eccentricity: 0.5430793
inclination: 49.5138°
perigee height: 328 km
apogee height: 16269 km
right ascension of ascending node: 23.9849°
argument of perigee: 202.4447°
revolutions per day: 4.88259313
mean anomaly at epoch: 120.0334°
orbit number at epoch: 22195

The dashed part of the orbit path shows where the satellite is in the earth's shadow,  

DLR